Orbital Elements at Epoch 2459200.5 (2020-Dec-17.0) TDB
Reference: JPL 18 (heliocentric ecliptic J2000)
Element | Value | Uncertainty (1-sigma) | Units |
e | .1684177725822899 | 3.5891e-08 | |
a | 2.358016383634651 | 1.111e-08 | au |
q | 1.960884516590357 | 8.7291e-08 | au |
i | 1.570602426981181 | 4.7991e-06 | deg |
node | 243.9207708040389 | 0.00017016 | deg |
peri | 62.49482134834675 | 0.00017101 | deg |
M | 17.55049306409923 | 1.5971e-05 | deg |
tp | 2459136.022903016025 (2020-Oct-13.52290302) | 5.8607e-05 | TDB |
period | 1322.569960254414 3.62 | 9.3468e-06 2.559e-08 | d yr |
n | .2721973209876544 | 1.9237e-09 | deg/d |
Q | 2.755148250678946 | 1.2981e-08 | au |
|
| | Orbit Determination Parameters
Additional Information
|